FW8687 Weather Reports


Display with metric or nautical units.
time (UTC)temp
F
wind
direction
speed
MPH
gust
MPH
rain 1hr
in
rain 24hr
in
rain mn
in
humidity
%
barometer
mb
20260906090714 69 135 0.0 0.0 0.00 0.00 0.00 99 1009.3
20260906084712 70 135 0.0 0.0 0.00 0.00 0.00 99 1009.0
20260906082709 70 135 0.0 0.0 0.00 0.00 0.00 99 1009.1
20260906080710 70 135 0.0 0.0 0.00 0.00 0.00 99 1009.1
20260906074707 70 142 0.0 0.0 0.00 0.00 0.00 99 1009.0
20260906072703 70 127 0.0 0.0 0.00 0.00 0.00 99 1009.0
20260906070703 70 141 0.0 0.0 0.00 0.00 0.00 99 1009.1
20260906064700 70 151 0.0 0.0 0.00 0.00 0.00 99 1009.0
20260906062659 70 144 0.0 0.0 0.00 0.00 0.00 99 1009.7
20260906060656 71 144 0.0 0.0 0.00 0.00 0.00 99 1009.7
20260906054651 71 142 0.0 0.0 0.00 0.00 0.00 99 1010.0
20260906052651 71 142 0.0 0.0 0.00 0.00 0.00 99 1010.0
20260906050650 71 143 0.0 0.0 0.00 0.00 0.00 99 1010.3
20260906044647 71 132 0.0 0.0 0.00 0.00 0.00 99 1010.0
20260906042644 71 134 0.0 0.0 0.00 0.00 0.00 99 1010.1
20260906040642 71 133 0.0 0.0 0.00 0.00 0.00 99 1009.9
20260906034641 71 133 0.0 0.0 0.00 0.37 0.37 99 1009.9
20260906032640 71 138 0.0 0.0 0.00 0.37 0.37 99 1010.4
20260906030635 71 135 0.0 0.0 0.00 0.37 0.37 99 1010.3
20260906024630 71 129 0.0 0.0 0.00 0.37 0.37 99 1010.5
20260906022627 72 122 0.0 0.0 0.00 0.37 0.37 99 1010.1
20260906020622 71 121 0.0 0.0 0.00 0.37 0.37 99 1009.8
20260906014617 72 125 0.0 0.0 0.00 0.37 0.37 99 1009.6
20260906012616 72 124 0.0 0.0 0.00 0.37 0.37 99 1009.3
20260906010613 72 125 0.0 0.0 0.00 0.37 0.37 99 1009.1
20260906004614 72 143 0.0 0.0 0.00 0.37 0.37 99 1009.2
20260906002612 72 109 0.0 0.0 0.00 0.37 0.37 99 1009.3
20260906000610 71 70 1.0 1.0 0.00 0.37 0.37 99 1009.4
20260905234606 71 184 0.0 3.0 0.07 0.37 0.37 99 1009.6
20260905232603 71 178 0.0 0.0 0.00 0.36 0.36 99 1009.9
20260905230602 72 122 0.0 0.0 0.00 0.36 0.36 99 1010.1
20260905224601 73 136 0.0 5.0 0.00 0.36 0.36 99 1009.6
20260905222600 73 125 0.0 0.0 0.00 0.36 0.36 99 1009.7
20260905220554 72 135 0.0 2.0 0.00 0.36 0.36 99 1009.6
20260905214554 71 154 0.0 0.0 1.02 0.36 0.36 95 1008.4
20260905212551 84 68 3.0 8.0 0.00 0.00 0.00 71 1008.8
20260905210548 98 150 0.0 0.0 0.00 0.00 0.00 53 1007.5
20260905204543 100 163 0.0 3.0 0.00 0.00 0.00 50 1007.9
20260905202540 101 209 3.0 5.0 0.00 0.00 0.00 50 1007.5
20260905200538 101 227 2.0 6.0 0.00 0.00 0.00 51 1007.4
20260905194538 99 111 1.0 5.0 0.00 0.00 0.00 51 1007.7
20260905192535 102 106 1.0 2.0 0.00 0.00 0.00 50 1008.0
20260905190533 99 282 3.0 5.0 0.00 0.00 0.00 52 1008.5
20260905184532 99 178 0.0 2.0 0.00 0.00 0.00 52 1009.0
20260905182532 98 97 0.0 1.0 0.00 0.00 0.00 55 1009.5
20260905180532 98 243 3.0 5.0 0.00 0.00 0.00 56 1010.0
20260905174530 97 192 3.0 3.0 0.00 0.00 0.00 55 1010.2
20260905172527 96 203 1.0 5.0 0.00 0.00 0.00 58 1010.3
20260905170523 96 72 0.0 5.0 0.00 0.00 0.00 58 1010.7
20260905164519 95 240 2.0 3.0 0.00 0.00 0.00 60 1010.9
20260905162520 93 141 0.0 2.0 0.00 0.00 0.00 62 1011.5
20260905160517 92 203 1.0 6.0 0.00 0.00 0.00 65 1011.5
20260905154517 91 143 1.0 5.0 0.00 0.00 0.00 66 1011.8
20260905152513 91 290 1.0 3.0 0.00 0.00 0.00 69 1012.0
20260905150511 89 172 1.0 2.0 0.00 0.00 0.00 74 1012.1
20260905144509 87 137 1.0 2.0 0.00 0.00 0.00 77 1012.4
20260905142507 85 148 0.0 2.0 0.00 0.00 0.00 83 1012.3
20260905140506 84 230 0.0 3.0 0.00 0.00 0.00 84 1012.3
20260905134501 82 173 2.0 2.0 0.00 0.00 0.00 86 1012.5
20260905132456 81 139 2.0 7.0 0.00 0.00 0.00 88 1012.6
20260905130452 80 243 3.0 3.0 0.00 0.00 0.00 92 1012.7
20260905124451 78 254 5.0 6.0 0.00 0.00 0.00 95 1012.4
20260905122448 77 134 1.0 5.0 0.00 0.00 0.00 98 1012.6
20260905120444 76 168 1.0 2.0 0.00 0.00 0.00 99 1012.2
20260905114439 75 188 1.0 2.0 0.00 0.00 0.00 99 1012.3
20260905112436 75 126 0.0 0.0 0.00 0.00 0.00 99 1012.1
20260905110437 75 137 0.0 0.0 0.00 0.00 0.00 99 1012.1
20260905104432 75 131 0.0 0.0 0.00 0.00 0.00 99 1011.8
20260905102432 75 135 0.0 0.0 0.00 0.00 0.00 99 1011.4
20260905100427 76 142 0.0 0.0 0.00 0.00 0.00 99 1011.7
20260905094423 76 129 0.0 1.0 0.00 0.00 0.00 99 1011.5
20260905092419 76 138 0.0 0.0 0.00 0.00 0.00 99 1011.6